User: anonymous   Login
Location: Unspecified
(0.0000°N, 0.0000°E)
Time: 10:20:26
(UTC+00:00)
Language:

Jawsat - Orbit

View from above orbital plane
View from above orbital plane
View from above satellite
View from above satellite

Ground track
Ground track

The orbit data is extracted from the following two-line orbital elements,

1 26061U 00004A   21258.96298896  .00000097  00000-0  48049-4 0  9999
2 26061 100.2271 258.0653 0034142 133.1993 227.2051 14.41512937136794
Epoch (UTC): 15 September 2021 23:06:42
Eccentricity: 0.0034142
inclination: 100.2271°
perigee height: 729 km
apogee height: 778 km
right ascension of ascending node: 258.0653°
argument of perigee: 133.1993°
revolutions per day: 14.41512937
mean anomaly at epoch: 227.2051°
orbit number at epoch: 13679

The dashed part of the orbit path shows where the satellite is in the earth's shadow,  

DLR